Regional Weather Roundup
Issued by NWS Burlington, VT

Home | Current Version | Previous Version | Text Only | Print | Product List | Glossary On
Versions: 1 2 3 4 5 6 7 8 9 10 11 12 13 14 15 16 17 18 19 20 21 22 23 24 25 26 27 28 29 30 31 32 33 34 35 36 37 38 39 40 41 42 43 44 45 46 47 48 49 50
000
ASUS41 KBTV 041930
RWRBTV
VERMONT REGIONAL WEATHER ROUNDUP
NATIONAL WEATHER SERVICE BURLINGTON VT
300 PM EDT SAT JUL 04 2015

NOTE: "FAIR" INDICATES FEW OR NO CLOUDS BELOW 12,000 FEET WITH NO
SIGNIFICANT WEATHER AND/OR OBSTRUCTIONS TO VISIBILITY.

* THESE REPORTS ARE NOT UNDER NWS QUALITY CONTROL AND/OR DO NOT
  REPORT WEATHER SUCH AS PRECIPITATION AND FOG.

VTZ001>019-042000-
_____VERMONT_____


CITY           SKY/WX    TMP DP  RH WIND       PRES   REMARKS
BURLINGTON     CLOUDY    73  58  59 S12       29.93S
MONTPELIER     CLOUDY    68  55  63 S9        30.01S
MORRISVILLE    CLOUDY    74  56  53 SW3       29.96S
ST. JOHNSBURY*   N/A     69  54  58 MISG      29.95F
LYNDONVILLE*   FAIR      68  54  60 SE7       29.99S
MIDDLEBURY*    FAIR      69  60  74 S14       29.96F
RUTLAND*       CLOUDY    66  57  72 CALM      29.99S
SPRINGFIELD    CLOUDY    65  60  84 VRB3      30.00S
HIGHGATE*      PTSUNNY   75  59  57 S3        29.92S
NEWPORT*       FAIR      71  56  58 S5        29.96S
BENNINGTON     LGT RAIN  65  61  87 CALM      29.99F
SUTTON*          N/A     68 N/A N/A MISG        N/A
MT. MANSFIELD*   N/A     59 N/A N/A W3          N/A

_____LAKE CHAMPLAIN_____


CITY           SKY/WX    TMP DP  RH WIND       PRES   REMARKS
BURTON ISLAND*   N/A    N/A N/A N/A S10         N/A
COLCHESTER RF*   N/A     70  59  68 S21         N/A
DIAMOND ISL*     N/A     68  61  77 S16         N/A

$$

NYZ007-026>031-035-052-083-042000-
_____NORTHERN NEW YORK_____


CITY           SKY/WX    TMP DP  RH WIND       PRES   REMARKS
PLATTSBURGH    CLOUDY    73  60  63 S14       29.91F
SARANAC LAKE   PTSUNNY   67  62  84 S7        29.95S
MASSENA        MOSUNNY   76  55  48 NW5       29.92S
OGDENSBURG*    SUNNY     77  61  57 W3        29.92S
POTSDAM*       MOSUNNY   73  64  73 W8        29.92F
WATERTOWN      MOSUNNY   74  62  66 W10       29.92F
FT DRUM        MOSUNNY   75  64  69 VRB7      29.92F
ALBANY         CLOUDY    67  62  84 S6        29.98F
GLENS FALLS    CLOUDY    63  60  90 S5        29.98S

$$
NHZ002-005-011-042000-
_____NEW HAMPSHIRE_____


CITY           SKY/WX    TMP DP  RH WIND       PRES   REMARKS
LEBANON        CLOUDY    67  58  72 S9        29.98S
KEENE          CLOUDY    63  55  77 CALM      30.01F
MT WASHINGTON  CLOUDY    46  41  81 W14         N/A
PLYMOUTH       FAIR      68  62  83 S3        29.99S HAZE
WHITEFIELD     CLOUDY    71  56  58 CALM      29.98S

$$

_____REGIONAL QUEBEC LOCATIONS_____


CITY           SKY/WX    TMP DP  RH WIND       PRES   REMARKS
MONTREAL       MOSUNNY   75  50  41 SW6       29.91S
QUEBEC CITY    PTSUNNY   73  55  53 S9        29.91F
SHERBROOKE     SUNNY     73  55  53 SW7       29.94F

_____REGIONAL ONTARIO LOCATIONS_____


CITY           SKY/WX    TMP DP  RH WIND       PRES   REMARKS
OTTAWA         PTSUNNY   77  50  38 CALM      29.91F

______KEY______
VSB  - VISIBILITY IN MILES
WCI  - WIND CHILL INDEX
HX   - HEAT INDEX
$$
NNNN


USA.gov is the U.S. government's official web portal to all federal, state and local government web resources and services.